GW3472 Weather Reports


Display with metric or nautical units.
time (UTC)temp
F
wind
direction
speed
MPH
gust
MPH
rain 1hr
in
rain 24hr
in
rain mn
in
humidity
%
barometer
mb
20260901074515 77 225 1.0 3.0 0.00 0.06 0.00 84 1014.3
20260901073515 77 225 2.0 3.0 0.00 0.06 0.00 84 1014.2
20260901072516 77 225 2.0 4.0 0.00 0.06 0.00 84 1014.2
20260901071516 77 225 2.0 5.0 0.00 0.06 0.00 84 1014.2
20260901070515 77 203 2.0 4.0 0.00 0.06 0.00 85 1014.2
20260901065516 77 203 1.0 3.0 0.00 0.06 0.00 85 1014.3
20260901064516 77 0.0 0.0 0.00 0.06 0.00 86 1014.2
20260901063535 77 0.0 0.0 0.00 0.06 0.00 86 1014.2
20260901062536 77 203 1.0 3.0 0.00 0.06 0.00 85 1013.9
20260901061515 77 203 1.0 3.0 0.00 0.06 0.00 85 1013.9
20260901060516 77 0.0 0.0 0.00 0.06 0.00 85 1013.9
20260901055515 78 0.0 1.0 0.00 0.06 0.00 84 1014.1
20260901054535 78 0.0 2.0 0.00 0.06 0.00 84 1014.0
20260901053516 78 0.0 0.0 0.00 0.06 0.00 84 1014.0
20260901052516 78 203 1.0 2.0 0.00 0.06 0.00 84 1014.0
20260901051516 78 0.0 2.0 0.00 0.06 0.00 84 1014.0
20260901050515 78 203 1.0 4.0 0.00 0.06 0.00 84 1014.0
20260901045538 78 203 1.0 3.0 0.00 0.06 0.06 85 1014.0
20260901044556 78 0.0 0.0 0.00 0.06 0.06 85 1014.0
20260901043516 78 0.0 3.0 0.00 0.06 0.06 85 1014.1
20260901042516 78 0.0 2.0 0.00 0.06 0.06 85 1014.2
20260901041536 79 0.0 2.0 0.00 0.06 0.06 85 1014.2
20260901040516 79 0.0 0.0 0.00 0.06 0.06 84 1014.2
20260901035537 79 0.0 2.0 0.00 0.06 0.06 84 1014.1
20260901034516 80 0.0 0.0 0.00 0.06 0.06 83 1014.1
20260901033515 80 0.0 0.0 0.00 0.06 0.06 82 1014.1
20260901032516 80 0.0 0.0 0.00 0.06 0.06 81 1014.1
20260901031536 81 0.0 0.0 0.00 0.06 0.06 81 1014.2
20260901030516 81 203 1.0 3.0 0.00 0.06 0.06 81 1014.2
20260901025616 81 203 1.0 4.0 0.00 0.06 0.06 81 1014.2
20260901024515 81 203 1.0 4.0 0.00 0.06 0.06 81 1014.2
20260901023536 81 0.0 2.0 0.00 0.06 0.06 81 1014.3
20260901022516 81 203 1.0 3.0 0.00 0.06 0.06 80 1014.3
20260901021518 81 225 2.0 4.0 0.00 0.06 0.06 81 1014.3
20260901020515 80 225 1.0 3.0 0.00 0.06 0.06 82 1014.0
20260901015516 80 180 1.0 2.0 0.00 0.06 0.06 83 1013.9
20260901014515 79 0.0 3.0 0.00 0.06 0.06 84 1013.8
20260901013535 79 203 2.0 4.0 0.00 0.06 0.06 85 1013.7
20260901012516 79 0.0 3.0 0.00 0.06 0.06 85 1013.8
20260901011515 80 0.0 0.0 0.00 0.06 0.06 83 1013.8
20260901010515 80 0.0 0.0 0.00 0.06 0.06 81 1013.8
20260901005515 80 0.0 2.0 0.00 0.06 0.06 81 1013.7
20260901004516 81 0.0 1.0 0.00 0.06 0.06 81 1013.7
20260901003556 81 0.0 0.0 0.00 0.06 0.06 80 1013.8
20260901002515 82 0.0 0.0 0.00 0.06 0.06 79 1013.7
20260901001536 82 0.0 2.0 0.00 0.06 0.06 78 1013.8
20260901000515 82 203 1.0 3.0 0.00 0.06 0.06 78 1013.6
20260831235516 82 203 3.0 5.0 0.00 0.06 0.06 79 1013.2
20260831234518 82 225 3.0 5.0 0.00 0.06 0.06 81 1013.1
20260831233517 82 135 2.0 4.0 0.00 0.06 0.06 84 1012.7
20260831232515 82 113 1.0 3.0 0.00 0.06 0.06 83 1013.1
20260831231517 83 0.0 0.0 0.00 0.06 0.06 80 1014.2
20260831230517 83 0.0 0.0 0.01 0.06 0.06 79 1014.2
20260831225517 83 0.0 0.0 0.01 0.06 0.06 80 1013.6
20260831224518 84 0.0 0.0 0.01 0.07 0.06 78 1013.5
20260831223517 84 225 1.0 4.0 0.01 0.07 0.06 75 1013.4
20260831222517 85 0.0 2.0 0.01 0.07 0.06 73 1013.5
20260831221518 86 225 1.0 2.0 0.02 0.07 0.06 70 1013.7
20260831220518 87 248 2.0 4.0 0.01 0.06 0.05 64 1013.4
20260831215519 87 203 3.0 9.0 0.01 0.06 0.05 65 1013.2
20260831214518 87 225 3.0 6.0 0.01 0.06 0.05 65 1013.1
20260831213517 87 203 2.0 5.0 0.01 0.07 0.05 66 1013.1
20260831212538 87 225 3.0 8.0 0.01 0.07 0.05 64 1013.1
20260831211517 88 225 2.0 6.0 0.00 0.06 0.04 62 1013.3
20260831210518 89 225 2.0 4.0 0.00 0.06 0.04 59 1013.4
20260831205517 89 225 3.0 8.0 0.00 0.06 0.04 60 1013.4
20260831204517 89 225 3.0 9.0 0.00 0.06 0.04 59 1013.5
20260831203517 89 225 4.0 7.0 0.00 0.06 0.04 59 1013.6
20260831202517 89 270 3.0 6.0 0.00 0.06 0.04 60 1013.8
20260831201519 89 225 3.0 7.0 0.00 0.06 0.04 59 1013.9
20260831200517 89 225 3.0 7.0 0.00 0.06 0.04 60 1014.0
20260831195517 88 248 3.0 6.0 0.00 0.06 0.04 59 1013.8
20260831194517 88 225 4.0 7.0 0.00 0.06 0.04 60 1013.7
20260831193518 88 248 4.0 8.0 0.00 0.06 0.04 58 1013.7
20260831192517 89 225 4.0 9.0 0.00 0.06 0.04 57 1013.7
20260831191517 88 225 4.0 9.0 0.00 0.06 0.04 58 1014.0
20260831190517 89 248 6.0 13.0 0.00 0.06 0.04 54 1013.8
20260831185517 89 225 3.0 6.0 0.00 0.06 0.04 58 1014.0
20260831184517 88 203 4.0 11.0 0.00 0.06 0.04 60 1014.0
20260831183517 87 225 5.0 11.0 0.00 0.06 0.04 61 1014.0
20260831182537 86 225 5.0 10.0 0.00 0.06 0.04 61 1013.9
20260831181517 86 225 5.0 12.0 0.00 0.06 0.04 61 1014.0
20260831180517 85 225 5.0 10.0 0.00 0.06 0.04 62 1014.2
20260831175517 84 225 5.0 13.0 0.00 0.06 0.04 64 1014.2
20260831174517 84 180 5.0 12.0 0.00 0.06 0.04 63 1014.4
20260831173517 83 180 3.0 7.0 0.00 0.06 0.04 67 1014.5
20260831172517 83 180 5.0 10.0 0.00 0.06 0.04 65 1014.5
20260831171517 82 180 3.0 7.0 0.00 0.06 0.04 69 1014.6
20260831170517 81 180 4.0 11.0 0.00 0.06 0.04 69 1014.7
20260831165517 80 135 4.0 9.0 0.00 0.06 0.04 69 1014.9
20260831164542 80 158 3.0 7.0 0.00 0.06 0.04 71 1015.1
20260831163517 79 113 4.0 8.0 0.00 0.06 0.04 72 1015.1
20260831162517 78 180 2.0 6.0 0.00 0.06 0.04 76 1015.1
20260831161557 77 113 3.0 7.0 0.00 0.06 0.04 77 1015.1
20260831160537 76 113 2.0 7.0 0.00 0.06 0.04 79 1015.1
20260831155517 75 135 2.0 7.0 0.00 0.06 0.04 82 1015.1
20260831154517 74 113 2.0 9.0 0.00 0.06 0.04 83 1015.2
20260831153517 74 135 3.0 7.0 0.00 0.06 0.04 84 1015.2
20260831152537 74 225 3.0 6.0 0.00 0.06 0.04 81 1015.5
20260831151517 74 90 2.0 4.0 0.00 0.06 0.04 81 1015.5
20260831150517 74 293 1.0 3.0 0.00 0.06 0.04 81 1015.6
20260831145517 74 113 1.0 4.0 0.00 0.06 0.04 81 1015.4
20260831144557 73 135 2.0 5.0 0.00 0.06 0.04 82 1015.3
20260831143517 73 135 2.0 4.0 0.00 0.06 0.04 84 1015.2
20260831142517 72 113 2.0 7.0 0.00 0.06 0.04 85 1015.2
20260831141520 71 90 2.0 6.0 0.00 0.06 0.04 87 1015.1
20260831140517 71 68 1.0 4.0 0.00 0.06 0.04 89 1015.1
20260831135518 70 68 1.0 3.0 0.00 0.06 0.04 89 1015.2
20260831134517 70 0.0 1.0 0.02 0.06 0.04 90 1015.2
20260831133517 70 0.0 1.0 0.02 0.06 0.04 89 1015.3
20260831132517 70 68 1.0 3.0 0.02 0.07 0.04 88 1015.1
20260831131517 70 113 2.0 5.0 0.02 0.08 0.04 87 1015.0
20260831130517 70 135 1.0 3.0 0.02 0.09 0.04 87 1015.1
20260831125517 70 0.0 3.0 0.02 0.09 0.04 87 1015.4
20260831124523 70 0.0 1.0 0.00 0.08 0.02 87 1015.4
20260831123517 70 0.0 0.0 0.00 0.08 0.02 85 1015.1
20260831122517 71 0.0 0.0 0.00 0.10 0.02 86 1015.0
20260831121517 71 0.0 2.0 0.00 0.11 0.02 84 1014.9
20260831120517 71 0.0 1.0 0.00 0.11 0.02 84 1014.3
20260831115537 71 0.0 4.0 0.00 0.12 0.02 83 1014.3
20260831114517 71 180 1.0 4.0 0.02 0.12 0.02 83 1014.3
20260831113517 70 225 1.0 2.0 0.02 0.13 0.02 84 1014.2
20260831112517 70 225 1.0 3.0 0.02 0.13 0.02 84 1014.1
20260831111517 71 225 1.0 2.0 0.02 0.13 0.02 84 1014.2
20260831110517 71 0.0 3.0 0.02 0.13 0.02 83 1014.1
20260831105517 72 180 1.0 5.0 0.02 0.13 0.02 82 1014.2
20260831104517 72 180 1.0 3.0 0.00 0.11 0.00 80 1014.4
20260831103517 72 0.0 2.0 0.00 0.11 0.00 80 1014.4
20260831102518 72 180 1.0 4.0 0.00 0.11 0.00 79 1014.5
20260831101517 72 180 2.0 4.0 0.00 0.11 0.00 80 1014.4
20260831100517 72 203 2.0 4.0 0.00 0.11 0.00 80 1014.2
20260831095537 72 225 2.0 6.0 0.00 0.11 0.00 80 1014.2
20260831094517 72 158 1.0 5.0 0.00 0.11 0.00 80 1014.2
20260831093517 72 180 2.0 5.0 0.00 0.11 0.00 79 1014.2
20260831092517 73 225 2.0 4.0 0.00 0.11 0.00 80 1014.3
20260831091517 73 203 2.0 5.0 0.00 0.11 0.00 79 1014.4
20260831090537 73 180 1.0 2.0 0.00 0.11 0.00 80 1014.4
20260831085517 73 180 1.0 3.0 0.00 0.11 0.00 80 1014.4
20260831084517 73 180 1.0 2.0 0.00 0.11 0.00 79 1014.4
20260831083517 73 180 1.0 5.0 0.00 0.11 0.00 79 1014.5
20260831082517 74 180 2.0 5.0 0.00 0.11 0.00 78 1014.3
20260831081517 74 203 1.0 5.0 0.00 0.11 0.00 78 1014.3
20260831080537 74 203 1.0 3.0 0.00 0.11 0.00 78 1014.4
20260831075517 74 180 1.0 4.0 0.00 0.11 0.00 77 1014.4